Location: Newark
(35.8833°N, 14.5000°E)
Time: 01:42:40
(UTC+00:00)

UNISAT 6 - Pass Details

Date: 21 May 2019
Orbit: 606 x 690 km, 97.8° (Epoch: 15 June)

Event Time Altitude Azimuth Distance (km) Brightness Sun altitude
Rises 20:45:52 0° 358° (N) 2,933 ? -25.7°
Reaches altitude 10° 20:48:21 10° 346° (NNW) 2,007 ? -25.9°
Maximum altitude 20:51:59 26° 290° (WNW) 1,223 ? -26.4°
Enters shadow 20:54:14 17° 246° (WSW) 1,566 ? -26.6°
